TimeCDT,TemperatureF,Dew PointF,Humidity,Sea Level PressureIn,VisibilityMPH,Wind Direction,Wind SpeedMPH,Gust SpeedMPH,PrecipitationIn,Events,Conditions,WindDirDegrees,DateUTC
12:53 AM,73.9,61.0,64,29.92,10.0,SSE,12.7,-,N/A,,Scattered Clouds,160,2013-07-05 05:53:00
1:53 AM,73.0,59.0,61,29.91,10.0,South,10.4,-,N/A,,Mostly Cloudy,170,2013-07-05 06:53:00
2:53 AM,73.0,59.0,61,29.90,10.0,South,12.7,-,N/A,,Mostly Cloudy,170,2013-07-05 07:53:00
3:53 AM,71.1,59.0,66,29.90,10.0,South,10.4,-,N/A,,Mostly Cloudy,180,2013-07-05 08:53:00
4:53 AM,69.1,60.1,73,29.90,10.0,South,8.1,-,N/A,,Mostly Cloudy,170,2013-07-05 09:53:00
5:53 AM,68.0,60.1,76,29.90,10.0,South,9.2,-,N/A,,Mostly Cloudy,170,2013-07-05 10:53:00
6:53 AM,66.0,60.1,81,29.91,10.0,SE,9.2,-,N/A,,Mostly Cloudy,140,2013-07-05 11:53:00
7:53 AM,70.0,61.0,73,29.92,10.0,SSE,8.1,-,N/A,,Mostly Cloudy,150,2013-07-05 12:53:00
8:53 AM,73.0,62.1,68,29.92,10.0,SSE,9.2,-,N/A,,Scattered Clouds,150,2013-07-05 13:53:00
9:53 AM,77.0,62.1,60,29.94,10.0,ESE,9.2,-,N/A,,Scattered Clouds,120,2013-07-05 14:53:00
10:53 AM,80.1,57.9,47,29.92,10.0,South,18.4,31.1,N/A,,Scattered Clouds,180,2013-07-05 15:53:00
11:53 AM,86.0,57.9,38,29.91,10.0,South,23.0,28.8,N/A,,Scattered Clouds,170,2013-07-05 16:53:00
12:53 PM,89.1,55.9,32,29.89,10.0,South,27.6,36.8,N/A,,Scattered Clouds,170,2013-07-05 17:53:00
1:53 PM,90.0,55.0,30,29.88,10.0,South,32.2,39.1,N/A,,Scattered Clouds,190,2013-07-05 18:53:00
2:53 PM,91.0,55.0,29,29.86,10.0,South,21.9,34.5,N/A,,Scattered Clouds,180,2013-07-05 19:53:00
3:53 PM,91.9,55.0,29,29.84,10.0,South,25.3,33.4,N/A,,Scattered Clouds,170,2013-07-05 20:53:00
4:53 PM,91.9,55.0,29,29.83,10.0,SSE,20.7,32.2,N/A,,Mostly Cloudy,160,2013-07-05 21:53:00
5:53 PM,91.9,57.0,31,29.81,10.0,SSE,19.6,26.5,N/A,,Mostly Cloudy,160,2013-07-05 22:53:00
6:53 PM,90.0,57.0,33,29.81,10.0,SSE,20.7,28.8,N/A,,Mostly Cloudy,150,2013-07-05 23:53:00
7:53 PM,87.1,55.9,35,29.81,10.0,SSE,17.3,-,N/A,,Scattered Clouds,160,2013-07-06 00:53:00
8:53 PM,82.9,59.0,44,29.83,10.0,SSE,13.8,-,N/A,,Scattered Clouds,150,2013-07-06 01:53:00
9:53 PM,80.1,61.0,52,29.85,10.0,SSE,11.5,-,N/A,,Scattered Clouds,150,2013-07-06 02:53:00
10:53 PM,79.0,61.0,54,29.85,10.0,SSE,13.8,-,N/A,,Scattered Clouds,150,2013-07-06 03:53:00
11:53 PM,77.0,61.0,58,29.86,10.0,SSE,11.5,-,N/A,,Scattered Clouds,150,2013-07-06 04:53:00